Vorticity
-0 15 3 5 18 16 11 5 11 4 6 9 7 5 4 3 4 1 4 5 4 6 2 -1 4 3 3 3 3 4 3 4 6
21 9 13 3 18 8 5 11 9 9 7 6 7 5 5 6 4 6 5 5 6 3 3 7 4 5 6 6 5 5 3 6 9
3 17 6 -10 -12 12 19 5 10 7 8 7 9 7 8 7 6 2 4 7 3 2 2 2 2 2 3 5 9 7 7 4 -1
8 3 11 12 12 1 8 12 3 -1 -2 1 -1 8 10 11 10 6 2 8 -3 38 14 9 8 8 5 10 8 6 6 8 7
-7 -8 1 7 12 15 16 10 6 3 -1 5 8 13 8 -9 5 5 16 2 2 3 6 20 8 1 16 13 15 9 4 5 4
11 11 11 6 15 -3 -7 19 13 5 8 2 -2 5 8 16 4 3 -2 3 9 8 9 11 14 14 4 9 8 11 18 1 4
8 8 9 12 11 20 7 7 16 10 12 16 -3 30 11 -1 3 5 3 6 3 8 6 -1 18 0 12 18 8 8 12 12 11
9 6 6 8 15 19 18 6 3 9 20 24 17 1 16 1 1 6 3 8 11 5 15 20 -5 20 6 1 22 12 4 12 12
7 6 4 2 3 5 11 20 20 12 10 -3 10 2 22 4 7 7 2 10 2 8 30 12 22 14 -10 18 15 12 17 21 22
7 4 2 2 3 4 4 5 12 16 14 14 9 10 10 5 5 4 7 8 9 0 -19 -28 -16 37 -15 -15 -17 7 5 7 7
5 3 2 3 4 5 5 4 6 17 8 12 21 29 27 21 20 19 13 11 8 11 6 13 21 26 -11 5 -7 -5 10 2 4
4 2 3 4 4 4 4 5 -2 -1 21 -3 8 2 -0 4 4 6 7 12 7 5 4 8 7 3 4 6 10 35 12 8 18
2 2 4 4 4 4 5 5 8 2 -0 9 9 0 9 6 2 20 12 5 15 11 8 6 7 -1 7 8 22 11 16 -3 6
2 2 5 4 4 4 5 6 5 7 3 4 4 4 -1 3 3 8 29 -0 4 4 -2 -1 6 -1 6 4 3 5 4 6 6
3 2 4 3 3 5 4 5 6 5 5 5 2 3 5 5 5 7 15 7 3 2 1 1 3 5 4 4 3 3 2 2 1
5 2 4 3 4 5 4 5 6 7 5 6 6 3 2 4 5 4 5 9 4 1 -1 -1 1 1 4 5 4 4 5 6 7
7 4 4 3 4 5 4 4 6 7 5 6 5 6 6 5 4 5 5 5 5 5 5 4 4 4 5 5 4 4 5 4 4
9 6 5 3 5 5 4 4 5 6 6 6 6 5 5 5 6 6 5 6 6 6 6 7 7 7 7 7 7 7 7 6 6
9 9 6 5 6 5 4 4 4 5 5 5 5 5 6 7 8 7 7 7 7 7 8 7 7 7 7 6 7 7 7 8 9
7 10 9 7 7 6 5 4 5 6 5 4 4 4 5 7 7 6 6 6 5 5 4 5 5 5 5 5 5 5 5 5 5
Height
5841 5841 5841 5842 5842 5840 5840 5844 5847 5849 5851 5853 5854 5854 5857 5859 5861 5860 5861 5860 5860 5862 5862 5863 5863 5864 5865 5865 5865 5866 5866 5866 5867
5838 5837 5840 5841 5839 5838 5836 5839 5843 5845 5849 5851 5852 5851 5854 5855 5857 5858 5858 5858 5859 5859 5860 5860 5860 5861 5861 5862 5862 5863 5864 5864 5865
5837 5836 5837 5837 5838 5836 5834 5835 5839 5842 5844 5847 5848 5849 5850 5851 5853 5855 5855 5856 5856 5857 5857 5858 5858 5858 5858 5858 5859 5860 5861 5862 5863
5834 5835 5834 5834 5834 5833 5833 5832 5834 5838 5840 5842 5843 5846 5847 5849 5850 5851 5854 5853 5853 5853 5854 5855 5855 5855 5855 5855 5855 5856 5857 5859 5860
5830 5831 5832 5831 5831 5830 5829 5831 5831 5833 5836 5838 5840 5842 5844 5846 5848 5848 5851 5850 5850 5851 5852 5852 5852 5852 5852 5851 5851 5852 5853 5854 5855
5827 5828 5828 5828 5827 5828 5828 5827 5829 5829 5831 5834 5836 5838 5840 5842 5844 5845 5848 5846 5848 5849 5849 5849 5850 5849 5848 5847 5846 5847 5848 5849 5850
5824 5826 5826 5827 5825 5825 5825 5825 5824 5826 5826 5829 5832 5834 5836 5839 5840 5842 5844 5843 5844 5845 5845 5847 5846 5846 5846 5844 5843 5844 5843 5844 5845
5820 5822 5822 5823 5823 5822 5823 5823 5821 5821 5822 5824 5827 5829 5832 5834 5836 5839 5841 5840 5841 5842 5842 5843 5843 5843 5843 5840 5838 5839 5840 5840 5841
5816 5819 5819 5819 5820 5820 5821 5821 5819 5818 5818 5821 5823 5825 5825 5829 5832 5834 5835 5836 5838 5837 5837 5838 5838 5837 5837 5836 5835 5836 5836 5836 5837
5813 5815 5816 5817 5818 5819 5819 5819 5819 5817 5815 5816 5818 5820 5822 5825 5827 5829 5831 5831 5833 5834 5834 5833 5833 5833 5830 5830 5831 5833 5833 5833 5834
5811 5812 5813 5812 5815 5815 5815 5816 5816 5817 5815 5813 5814 5816 5818 5820 5822 5823 5825 5826 5827 5828 5828 5828 5828 5827 5827 5826 5826 5828 5829 5829 5831
5807 5809 5809 5810 5811 5812 5813 5812 5813 5815 5814 5813 5813 5815 5816 5817 5818 5818 5819 5821 5822 5823 5826 5825 5824 5824 5824 5824 5824 5824 5825 5827 5827
5802 5804 5805 5806 5807 5808 5809 5809 5810 5811 5812 5811 5810 5812 5812 5813 5814 5813 5814 5817 5819 5821 5821 5822 5822 5821 5820 5821 5821 5822 5824 5825 5825
5796 5798 5799 5802 5802 5803 5804 5804 5805 5807 5808 5809 5806 5807 5809 5809 5809 5809 5810 5812 5814 5815 5816 5816 5816 5817 5817 5818 5819 5820 5820 5821 5821
5791 5791 5793 5796 5797 5798 5798 5799 5801 5803 5804 5805 5803 5802 5804 5806 5807 5807 5807 5808 5809 5810 5811 5812 5812 5813 5813 5813 5814 5814 5815 5816 5816
5784 5785 5787 5789 5791 5792 5793 5794 5795 5797 5799 5799 5800 5798 5798 5800 5802 5803 5803 5804 5804 5805 5806 5806 5807 5807 5807 5808 5808 5808 5808 5809 5809
5776 5778 5780 5782 5784 5785 5786 5787 5788 5790 5793 5792 5794 5794 5794 5794 5795 5797 5798 5798 5799 5799 5798 5799 5800 5800 5800 5800 5801 5801 5801 5802 5801
5767 5770 5772 5774 5777 5778 5779 5780 5781 5781 5786 5786 5787 5788 5788 5788 5789 5790 5790 5791 5791 5791 5792 5792 5792 5792 5792 5792 5792 5793 5793 5793 5794
5759 5761 5764 5766 5768 5769 5771 5772 5773 5774 5777 5779 5779 5780 5782 5781 5781 5782 5782 5783 5783 5784 5784 5784 5784 5784 5783 5783 5784 5783 5783 5783 5784
5750 5753 5754 5757 5759 5761 5762 5763 5765 5766 5767 5770 5770 5771 5772 5773 5774 5773 5774 5775 5775 5776 5776 5776 5775 5775 5774 5774 5775 5774 5773 5773 5774